Previsão horária em Abay

Hoje, 13 Abril, Terça-feira

Tempo Temperatura Precipitação Vento Pressão Humidade
00:00 +12°C° 0 mm 1 m/s 719 mmHg 62%
01:00 +11°C° 0 mm 1 m/s 719 mmHg 64%
02:00 +11°C° 0 mm 1 m/s 719 mmHg 67%
03:00 +10°C° 0 mm 1 m/s 719 mmHg 69%
04:00 +10°C° 0 mm 1 m/s 719 mmHg 71%
05:00 +8°C° 0 mm 0 m/s 719 mmHg 74%
06:00 +11°C° 0 mm 1 m/s 720 mmHg 67%
07:00 +13°C° 0 mm 1 m/s 720 mmHg 61%
08:00 +14°C° 0 mm 1 m/s 720 mmHg 54%
09:00 +16°C° 0 mm 1 m/s 720 mmHg 51%
10:00 +18°C° 0 mm 1 m/s 721 mmHg 47%
11:00 +19°C° 0 mm 1 m/s 721 mmHg 43%
12:00 +20°C° 0 mm 1 m/s 721 mmHg 42%
13:00 +21°C° 0 mm 1 m/s 720 mmHg 41%
14:00 +20°C° 0 mm 2 m/s 720 mmHg 40%
15:00 +20°C° 0 mm 2 m/s 720 mmHg 43%
16:00 +20°C° 0 mm 1 m/s 720 mmHg 45%
17:00 +20°C° 0 mm 1 m/s 720 mmHg 47%
18:00 +18°C° 0 mm 2 m/s 720 mmHg 48%
19:00 +17°C° 0 mm 2 m/s 720 mmHg 49%
20:00 +16°C° 0 mm 2 m/s 720 mmHg 50%
21:00 +15°C° 0 mm 1 m/s 720 mmHg 54%
22:00 +14°C° 0 mm 1 m/s 719 mmHg 56%
23:00 +13°C° 0 mm 1 m/s 719 mmHg 59%

Amanhã, 14 Abril, Quarta-feira

Tempo Temperatura Precipitação Vento Pressão Humidade
00:00 +13°C° 0 mm 1 m/s 719 mmHg 60%
01:00 +12°C° 0 mm 1 m/s 718 mmHg 60%
02:00 +12°C° 0 mm 1 m/s 718 mmHg 61%
03:00 +12°C° 0 mm 2 m/s 718 mmHg 60%
04:00 +12°C° 0 mm 2 m/s 718 mmHg 59%
05:00 +12°C° 0 mm 2 m/s 719 mmHg 58%
06:00 +11°C° 0 mm 3 m/s 719 mmHg 54%
07:00 +12°C° 0 mm 3 m/s 719 mmHg 51%
08:00 +13°C° 0 mm 4 m/s 719 mmHg 47%
09:00 +14°C° 0 mm 4 m/s 719 mmHg 44%
10:00 +17°C° 0 mm 4 m/s 719 mmHg 41%
11:00 +19°C° 0 mm 5 m/s 719 mmHg 38%
12:00 +19°C° 0 mm 5 m/s 718 mmHg 36%
13:00 +20°C° 0 mm 5 m/s 718 mmHg 34%
14:00 +21°C° 0 mm 5 m/s 718 mmHg 33%
15:00 +21°C° 0 mm 5 m/s 717 mmHg 32%
16:00 +21°C° 0 mm 5 m/s 717 mmHg 32%
17:00 +20°C° 0 mm 4 m/s 717 mmHg 31%
18:00 +19°C° 0 mm 4 m/s 717 mmHg 35%
19:00 +17°C° 0 mm 3 m/s 716 mmHg 39%
20:00 +15°C° 0 mm 2 m/s 716 mmHg 43%
21:00 +14°C° 0 mm 2 m/s 716 mmHg 47%
22:00 +14°C° 0 mm 2 m/s 716 mmHg 51%
23:00 +13°C° 0 mm 1 m/s 715 mmHg 54%

Depois de amanhã, 15 Abril, Quinta-feira

Tempo Temperatura Precipitação Vento Pressão Humidade
00:00 +13°C° 0 mm 2 m/s 715 mmHg 56%
01:00 +12°C° 0 mm 2 m/s 715 mmHg 58%
02:00 +12°C° 0 mm 2 m/s 714 mmHg 60%
03:00 +10°C° 0 mm 2 m/s 714 mmHg 60%
04:00 +11°C° 0 mm 1 m/s 714 mmHg 60%
05:00 +10°C° 0 mm 1 m/s 714 mmHg 59%
06:00 +12°C° 0 mm 1 m/s 715 mmHg 55%
07:00 +13°C° 0 mm 1 m/s 715 mmHg 51%
08:00 +15°C° 0 mm 1 m/s 715 mmHg 47%
09:00 +18°C° 0 mm 1 m/s 715 mmHg 44%
10:00 +19°C° 0 mm 2 m/s 715 mmHg 40%
11:00 +21°C° 0 mm 2 m/s 715 mmHg 37%
12:00 +23°C° 0 mm 2 m/s 715 mmHg 35%
13:00 +24°C° 0 mm 2 m/s 715 mmHg 33%
14:00 +25°C° 0 mm 2 m/s 715 mmHg 31%
15:00 +25°C° 0 mm 2 m/s 715 mmHg 31%
16:00 +25°C° 0 mm 2 m/s 715 mmHg 31%
17:00 +25°C° 0 mm 3 m/s 715 mmHg 32%
18:00 +21°C° 0.1 mm 3 m/s 715 mmHg 42%
19:00 +18°C° 0.1 mm 3 m/s 715 mmHg 52%
20:00 +16°C° 0.1 mm 3 m/s 715 mmHg 63%
21:00 +14°C° 0 mm 3 m/s 715 mmHg 65%
22:00 +14°C° 0 mm 3 m/s 715 mmHg 68%
23:00 +14°C° 0 mm 2 m/s 715 mmHg 71%

16 Abril, Sexta-feira

Tempo Temperatura Precipitação Vento Pressão Humidade
00:00 +14°C° 0 mm 2 m/s 714 mmHg 71%
01:00 +14°C° 0 mm 2 m/s 714 mmHg 71%
02:00 +14°C° 0 mm 2 m/s 714 mmHg 71%
03:00 +14°C° 0 mm 2 m/s 714 mmHg 72%
04:00 +13°C° 0 mm 2 m/s 714 mmHg 73%
05:00 +13°C° 0 mm 2 m/s 714 mmHg 74%
06:00 +15°C° 0 mm 2 m/s 715 mmHg 67%
07:00 +16°C° 0 mm 1 m/s 715 mmHg 59%
08:00 +19°C° 0 mm 1 m/s 715 mmHg 52%
09:00 +20°C° 0 mm 2 m/s 715 mmHg 44%
10:00 +21°C° 0 mm 3 m/s 715 mmHg 35%
11:00 +24°C° 0 mm 3 m/s 715 mmHg 27%
12:00 +25°C° 0 mm 4 m/s 715 mmHg 25%
13:00 +26°C° 0 mm 5 m/s 715 mmHg 24%
14:00 +26°C° 0 mm 6 m/s 715 mmHg 22%
15:00 +26°C° 0 mm 6 m/s 715 mmHg 25%
16:00 +24°C° 0 mm 6 m/s 715 mmHg 27%
17:00 +23°C° 0 mm 6 m/s 715 mmHg 30%
18:00 +21°C° 0 mm 5 m/s 715 mmHg 35%
19:00 +19°C° 0 mm 3 m/s 715 mmHg 41%
20:00 +17°C° 0 mm 2 m/s 716 mmHg 47%
21:00 +16°C° 0 mm 2 m/s 715 mmHg 49%
22:00 +16°C° 0 mm 2 m/s 715 mmHg 51%
23:00 +14°C° 0 mm 3 m/s 715 mmHg 53%

17 Abril, Sábado

Tempo Temperatura Precipitação Vento Pressão Humidade
00:00 +14°C° 0 mm 3 m/s 715 mmHg 53%
01:00 +15°C° 0 mm 2 m/s 715 mmHg 53%
02:00 +14°C° 0 mm 2 m/s 715 mmHg 54%
03:00 +14°C° 0 mm 2 m/s 714 mmHg 54%
04:00 +14°C° 0 mm 2 m/s 714 mmHg 54%
05:00 +13°C° 0 mm 2 m/s 714 mmHg 54%
06:00 +15°C° 0 mm 2 m/s 715 mmHg 49%
07:00 +18°C° 0 mm 1 m/s 715 mmHg 44%
08:00 +20°C° 0 mm 1 m/s 715 mmHg 39%
09:00 +21°C° 0 mm 1 m/s 715 mmHg 35%
10:00 +22°C° 0 mm 1 m/s 715 mmHg 32%
11:00 +24°C° 0 mm 2 m/s 715 mmHg 28%
12:00 +24°C° 0 mm 2 m/s 715 mmHg 26%
13:00 +25°C° 0 mm 2 m/s 715 mmHg 25%
14:00 +26°C° 0 mm 3 m/s 715 mmHg 23%
15:00 +25°C° 0 mm 3 m/s 714 mmHg 23%
16:00 +25°C° 0 mm 3 m/s 714 mmHg 23%
17:00 +25°C° 0 mm 3 m/s 714 mmHg 23%
18:00 +22°C° 0 mm 3 m/s 714 mmHg 27%
19:00 +20°C° 0 mm 2 m/s 714 mmHg 31%
20:00 +18°C° 0 mm 2 m/s 714 mmHg 35%
21:00 +17°C° 0 mm 2 m/s 714 mmHg 36%
22:00 +17°C° 0 mm 2 m/s 714 mmHg 37%
23:00 +16°C° 0 mm 2 m/s 714 mmHg 38%

18 Abril, Domingo

Tempo Temperatura Precipitação Vento Pressão Humidade
00:00 +16°C° 0 mm 2 m/s 714 mmHg 38%
01:00 +16°C° 0 mm 2 m/s 714 mmHg 38%
02:00 +16°C° 0 mm 2 m/s 714 mmHg 38%
03:00 +16°C° 0 mm 2 m/s 714 mmHg 38%
04:00 +16°C° 0 mm 3 m/s 715 mmHg 38%
05:00 +16°C° 0 mm 3 m/s 715 mmHg 38%
06:00 +16°C° 0 mm 5 m/s 715 mmHg 38%
07:00 +17°C° 0 mm 6 m/s 716 mmHg 39%
08:00 +17°C° 0 mm 8 m/s 716 mmHg 39%
09:00 +18°C° 0 mm 8 m/s 716 mmHg 36%
10:00 +21°C° 0 mm 9 m/s 717 mmHg 33%
11:00 +22°C° 0 mm 9 m/s 717 mmHg 30%
12:00 +22°C° 0 mm 9 m/s 717 mmHg 29%
13:00 +23°C° 0 mm 10 m/s 717 mmHg 28%
14:00 +24°C° 0 mm 10 m/s 717 mmHg 26%
15:00 +23°C° 0 mm 9 m/s 717 mmHg 28%
16:00 +23°C° 0 mm 8 m/s 716 mmHg 29%
17:00 +22°C° 0 mm 7 m/s 716 mmHg 30%
18:00 +21°C° 0 mm 6 m/s 716 mmHg 36%
19:00 +19°C° 0 mm 4 m/s 716 mmHg 42%
20:00 +17°C° 0 mm 3 m/s 716 mmHg 48%
21:00 +17°C° 0 mm 3 m/s 715 mmHg 48%
22:00 +17°C° 0 mm 4 m/s 715 mmHg 47%
23:00 +15°C° 0 mm 5 m/s 714 mmHg 47%
Mostrar mais

Necessitamos do seu Consentimento

A Meteoprog e os seus Fornecedores de Serviços podem armazenar e aceder a dados pessoais como cookies, identificadores do dispositivo ou outras tecnologias semelhantes existentes no seu dispositivo e processar estes dados para personalizar conteúdos e anúncios, assim como funcionalidades nas redes sociais e análise de tráfego.

  • Armazenar e/ou aceder a informações no seu dispositivo

    Os cookies, identificadores do dispositivo ou outras informações podem ser armazenados ou acedidos no seu dispositivo, para os fins acima indicados.

  • Anúncios e conteúdos personalizados, medição de anúncios e conteúdos, dados sobre o público-alvo e desenvolvimento de produtos

    Os anúncios e os conteúdos podem ser personalizados com base num perfil. Podem ser adicionados dados adicionais para uma maior personalização dos anúncios e dos conteúdos. A eficácia dos anúncios e dos conteúdos pode ser medida. Podem ser obtidas informações sobre o público que visualizou os anúncios e os conteúdos. Estes dados podem ser usados para desenvolver ou melhorar sistemas, softwares ou a experiência do utilizador.

Ao clicar em "Eu concordo”, permitirá o uso de cookies, identificadores do dispositivo e web beacons mencionados ou outras tecnologias semelhantes. As configurações do navegador do seu dispositivo podem ser alteradas.

Para certos fins, podem ser invocados interesses legítimos ao invés de consentimento. Pode ler mais informação sobre este assunto na nossa Política de Privacidade e Cookies.